Flag for U.S.A. Weather past 2 weeks in Lexington-Fayette, Kentucky, U.S.A.

Now
68 °F

Fog.


Feels Like: 68 °F
Forecast: 64 / 87 °F
Wind: No wind

Location: Blue Grass Airport

Current Time: Sep 3, 2015 at 6:57:58 AM

Latest Report: Sep 3, 2015 at 5:54 AM


Visibility: 4 mi

Pressure: 30.00 "Hg

Humidity: 90%

Dew point: 65 °F

Location of Lexington-FayetteLocation

Historic Weather in Lexington-Fayette — Graph

°F

Lexington-Fayette temperature yesterday

Maximum temperature yesterday: 90 °F (at 3:54 PM)
Minimum temperature yesterday: 66 °F (at 5:54 AM)
Average temperature yesterday: 78 °F

Past Weeks' High & Low Weather Summary

 TemperatureHumidityPressure
High90 °F (Sep 2, 3:54 PM)96% (Aug 19, 6:54 AM)30.18 "Hg (Aug 19, 6:54 AM)
Low52 °F (Aug 28, 6:54 AM)38% (Aug 21, 4:54 PM)29.79 "Hg (Aug 19, 6:54 PM)
Average72 °F69%30.06 "Hg
* Reported Aug 19 4:54 AM — Sep 3 4:54 AM, Lexington-Fayette, Weather by CustomWeather, © 2015

Note: Actual official high and low records may vary slightly from our data, if they occured in-between our weather recording intervals... More about our weather records

Advertising

Lexington-Fayette weather history for previous 24 hours

 ConditionsComfort  
Time TempWeatherWind HumidityBarometerVisibility
4:54 AM
Thu, Sep 3
69 °FFog.No wind87%30.00 "Hg5 mi
3:54 AM67 °FFog.5 mph93%30.00 "Hg4 mi
2:54 AM67 °FFog.No wind90%30.00 "Hg5 mi
1:54 AM70 °FFog.No wind90%30.01 "Hg4 mi
12:54 AM72 °FClear.No wind84%30.02 "Hg7 mi
11:54 PM
Wed, Sep 2
72 °FClear.3 mph81%30.03 "Hg8 mi
10:54 PM75 °FClear.No wind76%30.03 "Hg8 mi
9:54 PM78 °FClear.No wind69%30.02 "Hg9 mi
8:54 PM79 °FSunny.No wind65%30.01 "Hg10 mi
7:54 PM83 °FSunny.3 mph57%30.01 "Hg10 mi
6:54 PM87 °FSunny.5 mph50%30.00 "Hg10 mi
5:54 PM89 °FSunny.7 mph45%30.01 "Hg10 mi
4:54 PM89 °FSunny.6 mph43%30.02 "Hg10 mi
3:54 PM90 °FSunny.5 mph42%30.04 "Hg10 mi
2:54 PM89 °FPassing clouds.6 mph45%30.06 "Hg10 mi
1:54 PM86 °FSunny.7 mph49%30.09 "Hg10 mi
12:54 PM86 °FPassing clouds.6 mph51%30.10 "Hg10 mi
11:54 AM83 °FSunny.3 mph57%30.13 "Hg10 mi
10:54 AM83 °FSunny.5 mph59%30.13 "Hg10 mi
9:54 AM79 °FSunny.No wind67%30.12 "Hg10 mi
8:54 AM73 °FSunny.No wind81%30.14 "Hg9 mi
7:54 AM67 °FFog.No wind90%30.14 "Hg6 mi
6:54 AM67 °FClear.No wind90%30.11 "Hg9 mi
Weather by CustomWeather, © 2015

See weather overviewHow to use our weather pages